Location: *
(52.2090°N, 4.1550°W)
Time: 01:47:32
(UTC+00:00)

ARGOS Delta rocket - Pass Details

Date: 19 July 2019
Orbit: 636 x 837 km, 96.5° (Epoch: 20 August)

Event Time Altitude Azimuth Distance (km) Brightness Sun altitude
Exits shadow 22:36:26 18° 130° (SE) 1,579 5.1 -13.4°
Maximum altitude 22:39:20 41° 69° (ENE) 961 4.5 -13.6°
Drops below altitude 10° 22:43:41 10° 360° (N) 2,135 7.4 -13.9°
Sets 22:46:04 0° 353° (N) 3,086 8.7 -14.0°
